STARLINK-36357, 67963

Orbit data source: Space-Track

STARLINK-36357, 67963 is a payload satellite owned by SpaceX/Seattle (US) in SSO that was launched on Wed, 25 Feb 2026 UTC via an FALCON 9 launch vehicle from the Air Force Western Test Range (AFWTR). Payload-class satellites include a variety of spacecraft equipped with specific instruments for various scientific and technological missions. These include communications satellites like Starlink; space stations such as the ISS; scientific satellites like the Hubble; Earth observation satellites from companies like Planet Labs, Umbra, and HawkEye 360; GPS; miniature CubeSats for education and research; and military/defense satellites.

Loading next visibility...
Identifier
67963, 2026-038C
Orbit
SSO
Country
Flag of USUS
Related business
Manufacturer
SpaceX/Seattle
Mission
Operational Commercial Communications
Bus & Motor
STARLINK V2MO, Unknown motor
Mass
575 kg wet, ~530 kg dry
Launch date (UTC)
2026-02-25 (4 months ago)
Launch vehicle
FALCON 9
Launch site
Air Force Western Test Range (AFWTR)
Object type
Payload
Rocket body
Debris
Shape & HBR
Box + 2 Pan, 17.7 m
Radar Cross Section
36.964 m², Large (>1 m²)

Expand to show TLE details & history
Last TLE update: 22 hours ago

TLE from 22 hours ago
0 STARLINK-36357
1 67963U 26038C   26170.92480205  .00019763  00000-0  61277-3 0  9998
2 67963  97.2867 180.5399 0001311  76.9258 283.2131 15.33450514 18909
Epoch: 2026-06-19T22:11Z
TLE epoch observation values (Epoch: 2026-06-19T22:11:42.897Z)
Latitude
-0°
Longitude
-60.53563°
Altitude
468.434 km
Speed
7.632 km/s
True Right ascension
12h 02m 09s
True Declination
0° 00' 00"
Sunlit
Object was in daylight at epoch
Visualization orbit readout
Latitude
Unknown
Longitude
Unknown
Altitude
Unknown
Speed
Unknown
Apparent Right ascension
Unknown
Apparent Declination
Unknown
Sunlit
N/A
Visualization observer readout
Local Sidereal Time
07:17:20
Azimuth
Unknown
Elevation
Unknown
Doppler factor
Unknown
Orbital elements
Apogee altitude
463.366 km
Perigee altitude
461.573 km
Semi-major axis
6,840.607 km
Eccentricity
0.00013
Inclination
97.2867°
RAAN
180.5399°
Arg. of periapsis
76.9258°
True anomaly
283.19847°
Mean anomaly
283.2131°
Eccentric anomaly
283.20579°
Mean motion
3.8362 °/min
Orbital period
93.84 mins
BSTAR
0.00061277
Loading maneuver chart data...
Computing Atmospheric mass density...
Loading historical data...
Loading historical data...
Loading historical data...
Loading historical data...
Loading historical data...
Loading historical data...
Loading historical data...

Documentation

Showing up to 5 results
|